Weather reports worldwide

Advertisment
Falconara, Italy (16191): temperature & dewpoint: 12.08.2019 03:00:00 - 18.08.2019 03:00:00 (CEST)Falconara, Italy (16191): wind speed: 12.08.2019 03:00:00 - 18.08.2019 03:00:00 (CEST)Falconara, Italy (16191): wind direction: 12.08.2019 03:00:00 - 18.08.2019 03:00:00 (CEST)Falconara, Italy (16191): reduced air pressure: 12.08.2019 03:00:00 - 18.08.2019 03:00:00 (CEST)Falconara, Italy (16191): visibility: 12.08.2019 03:00:00 - 18.08.2019 03:00:00 (CEST)Falconara, Italy (16191): precipitation: 12.08.2019 03:00:00 - 18.08.2019 03:00:00 (CEST)
Date & Time tt [°C] td [°C] ff [km/h] ff [kn] dd ppp [hPa] vv [km] rr [mm]
18.08.2019 03:00:00 20,0 17,0 5 3 S - 10 -
18.08.2019 02:00:00 20,3 16,5 2 1 SSE 1015,5 10 -
18.08.2019 01:00:00 20,0 16,0 2 1 - - 10 -
18.08.2019 00:00:00 21,0 16,0 2 1 - - 10 -
17.08.2019 23:00:00 21,1 15,9 2 1 N 1015,6 55 0,0
17.08.2019 22:00:00 24,0 15,0 5 3 - - 10 -
17.08.2019 21:00:00 25,0 15,0 5 3 SSE - 10 -
17.08.2019 20:00:00 26,2 14,6 5 3 SE 1015,4 55 -
17.08.2019 19:00:00 28,0 16,0 9 5 SE - 10 -
17.08.2019 18:00:00 27,0 17,0 13 7 ENE - 10 -
17.08.2019 17:00:00 26,7 16,2 15 8 ENE 1015,5 55 0,0
17.08.2019 16:00:00 27,0 17,0 18 10 ENE - 10 -
17.08.2019 15:00:00 27,0 17,0 21 11 NE - 10 -
17.08.2019 14:00:00 26,4 18,1 15 8 NE 1016,5 30 -
17.08.2019 13:00:00 27,0 17,0 16 9 NE - 10 -
17.08.2019 12:00:00 27,0 17,0 13 7 NE - 10 -
17.08.2019 11:00:00 26,8 17,2 9 5 - 1017,2 10 0,0
17.08.2019 10:00:00 25,0 15,0 5 3 SW - 10 -
17.08.2019 09:00:00 22,0 14,0 5 3 S - 10 -
17.08.2019 08:00:00 19,4 14,1 5 3 SSW 1017,1 55 -
17.08.2019 07:00:00 16,0 14,0 5 3 S - 10 -
17.08.2019 06:00:00 16,0 14,0 5 3 SSW - 10 -
17.08.2019 05:00:00 16,3 13,7 5 3 S 1016,4 10 0,0
17.08.2019 04:00:00 17,0 14,0 5 3 S - 10 -
17.08.2019 03:00:00 17,0 14,0 5 3 S - 10 -
17.08.2019 02:00:00 17,5 14,5 4 2 S 1016,9 10 -
17.08.2019 01:00:00 18,0 15,0 4 2 S - 10 -
17.08.2019 00:00:00 19,0 15,0 5 3 S - 10 -
16.08.2019 23:00:00 20,2 15,6 4 2 SSE 1017,0 55 0,0
16.08.2019 22:00:00 22,0 16,0 4 2 - - 10 -
16.08.2019 21:00:00 22,0 16,0 5 3 WSW - 10 -
16.08.2019 20:00:00 23,4 16,0 5 3 NNW 1015,5 30 -
16.08.2019 19:00:00 25,0 15,0 9 5 NNW - 10 -
16.08.2019 18:00:00 26,0 14,0 16 9 NNW - 10 -
16.08.2019 17:00:00 26,4 15,1 16 9 NNW 1015,7 55 0,0
16.08.2019 16:00:00 27,0 16,0 18 10 N - 10 -
16.08.2019 15:00:00 27,0 17,0 21 11 N - 10 -
16.08.2019 14:00:00 26,6 16,9 21 11 NNW 1016,0 10 -
16.08.2019 13:00:00 26,0 18,0 18 10 NNW - 10 -
16.08.2019 12:00:00 25,0 19,0 18 10 NNW - 10 -
16.08.2019 11:00:00 25,9 18,3 16 9 NNW 1016,2 55 0,0
16.08.2019 10:00:00 25,0 18,0 11 6 NNW - 10 -
16.08.2019 09:00:00 23,0 17,0 5 3 SW - 10 -
16.08.2019 08:00:00 20,5 15,6 5 3 S 1015,4 55 -
16.08.2019 07:00:00 18,0 15,0 8 4 S - 10 -
16.08.2019 06:00:00 18,0 15,0 5 3 SSW - 10 -
16.08.2019 05:00:00 18,1 14,9 4 2 N 1014,7 10 0,0
16.08.2019 04:00:00 19,0 15,0 5 3 SSE - 10 -
16.08.2019 03:00:00 19,0 15,0 4 2 SSW - 10 -
16.08.2019 02:00:00 18,9 15,4 4 2 N 1013,9 10 -
16.08.2019 01:00:00 20,0 15,0 4 2 - - 10 -
16.08.2019 00:00:00 19,0 15,0 2 1 - - 10 -
15.08.2019 23:00:00 19,3 14,7 4 2 N 1014,2 30 0,0
15.08.2019 22:00:00 21,0 15,0 4 2 SSE - 10 -
15.08.2019 21:00:00 23,0 14,0 2 1 - - 10 -
15.08.2019 20:00:00 25,0 13,7 5 3 ESE 1013,9 30 -
15.08.2019 19:00:00 26,0 14,0 15 8 NE - 10 -
15.08.2019 18:00:00 26,0 14,0 15 8 NE - 10 -
15.08.2019 17:00:00 26,0 15,6 15 8 NNE 1014,2 30 0,0
15.08.2019 16:00:00 26,0 17,0 15 8 NNE - 10 -
15.08.2019 15:00:00 26,0 18,0 13 7 N - 10 -
15.08.2019 14:00:00 26,3 17,6 13 7 NNW 1015,3 55 -
15.08.2019 13:00:00 26,0 18,0 15 8 N - 10 -
15.08.2019 12:00:00 26,0 17,0 11 6 N - 10 -
15.08.2019 11:00:00 25,5 16,4 13 7 NNW 1015,8 55 0,0
15.08.2019 10:00:00 25,0 17,0 11 6 WNW - 10 -
15.08.2019 09:00:00 23,0 17,0 8 4 SSW - 10 -
15.08.2019 08:00:00 20,9 16,1 5 3 S 1015,8 30 -
15.08.2019 07:00:00 - - - - - - - -
15.08.2019 06:00:00 19,0 16,0 5 3 S - 10 -
15.08.2019 05:00:00 19,1 15,8 5 3 SSE 1015,2 10 0,0
15.08.2019 04:00:00 19,0 16,0 5 3 S - 10 -
15.08.2019 03:00:00 20,0 16,0 5 3 - - 10 -
15.08.2019 02:00:00 19,5 15,5 9 5 SSW 1015,4 10 -
15.08.2019 01:00:00 23,0 16,0 15 8 NNW - 10 -
15.08.2019 00:00:00 23,0 16,0 15 8 N - 10 -
14.08.2019 23:00:00 23,8 15,1 15 8 N 1015,2 55 0,0
14.08.2019 22:00:00 24,0 15,0 15 8 N - 10 -
14.08.2019 21:00:00 24,0 15,0 15 8 N - 10 -
14.08.2019 20:00:00 24,3 15,9 15 8 N 1013,9 30 -
14.08.2019 19:00:00 26,0 16,0 15 8 N - 10 -
14.08.2019 18:00:00 26,0 15,0 16 9 N - 10 -
14.08.2019 17:00:00 25,2 16,9 18 10 NNE 1013,4 30 0,0
14.08.2019 16:00:00 26,0 19,0 24 13 NNE - 10 -
14.08.2019 15:00:00 26,0 19,0 15 8 N - 10 -
14.08.2019 14:00:00 26,3 19,0 15 8 NNW 1013,0 25 -
14.08.2019 13:00:00 26,0 20,0 16 9 NNW - 10 -
14.08.2019 12:00:00 25,0 20,0 15 8 NW - 10 -
14.08.2019 11:00:00 24,2 18,4 5 3 N 1012,2 20 0,0
14.08.2019 10:00:00 23,0 20,0 13 7 NNE - 10 -
14.08.2019 09:00:00 23,0 21,0 5 3 WSW - 10 -
14.08.2019 08:00:00 21,8 20,7 8 4 SW 1011,3 20 -
14.08.2019 07:00:00 21,0 21,0 5 3 WSW - 10 -
14.08.2019 06:00:00 24,0 20,0 16 9 NNE - 10 -
14.08.2019 05:00:00 25,4 20,8 15 8 NNE 1009,3 10 0,0
14.08.2019 04:00:00 26,0 21,0 9 5 ENE - 10 -
14.08.2019 03:00:00 25,0 21,0 21 11 NNE - 10 -
14.08.2019 02:00:00 25,7 22,3 22 12 NE 1009,0 9 -
14.08.2019 01:00:00 26,0 22,0 22 12 NE - 9 -
14.08.2019 00:00:00 26,0 20,0 2 1 - - 9 -
13.08.2019 23:00:00 24,7 19,7 9 5 N 1008,0 55 0,0
13.08.2019 22:00:00 26,0 19,0 5 3 SE - 10 -
13.08.2019 21:00:00 27,0 18,0 5 3 - - 10 -
13.08.2019 20:00:00 27,8 19,2 11 6 SE 1008,2 10 -
13.08.2019 19:00:00 28,0 23,0 11 6 NE - 10 -
13.08.2019 18:00:00 29,0 23,0 11 6 NE - 10 -
13.08.2019 17:00:00 29,7 21,9 5 3 NE 1009,4 10 0,0
13.08.2019 16:00:00 29,0 23,0 9 5 N - 10 -
13.08.2019 15:00:00 28,0 23,0 15 8 N - 10 -
13.08.2019 14:00:00 28,7 23,2 16 9 N 1010,9 20 -
13.08.2019 13:00:00 29,0 24,0 18 10 NNW - 10 -
13.08.2019 12:00:00 29,0 24,0 18 10 NNW - 10 -
13.08.2019 11:00:00 28,0 24,3 21 11 NNW 1011,5 30 0,0
13.08.2019 10:00:00 29,0 23,0 18 10 NNW - 10 -
13.08.2019 09:00:00 29,0 21,0 9 5 SSW - 10 -
13.08.2019 08:00:00 26,2 21,7 4 2 S 1010,6 30 -
13.08.2019 07:00:00 25,0 22,0 4 2 S - 10 -
13.08.2019 06:00:00 25,0 23,0 5 3 S - 10 -
13.08.2019 05:00:00 24,9 22,2 4 2 - 1010,4 10 0,0
13.08.2019 04:00:00 - - - - - - - -
13.08.2019 03:00:00 25,0 22,0 5 3 S - 10 -
13.08.2019 02:00:00 25,3 21,9 5 3 S 1011,2 10 -
13.08.2019 01:00:00 26,0 23,0 5 3 S - 10 -
13.08.2019 00:00:00 26,0 23,0 5 3 S - 10 -
12.08.2019 23:00:00 26,1 23,8 4 2 SSE 1011,5 25 0,0
12.08.2019 22:00:00 27,0 25,0 2 1 - - 10 -
12.08.2019 21:00:00 28,0 26,0 2 1 - - 10 -
12.08.2019 20:00:00 28,3 25,6 5 3 NNW 1010,1 30 -
12.08.2019 19:00:00 30,0 24,0 9 5 NE - 10 -
12.08.2019 18:00:00 30,0 25,0 18 10 NE - 10 -
12.08.2019 17:00:00 31,4 22,8 15 8 NE 1010,1 25 0,0
12.08.2019 16:00:00 32,0 24,0 21 11 NE - 10 -
12.08.2019 15:00:00 31,0 24,0 24 13 NE - 10 -
12.08.2019 14:00:00 33,6 20,9 13 7 NE 1011,1 30 -
12.08.2019 13:00:00 33,0 17,0 13 7 NE - 10 -
12.08.2019 12:00:00 32,0 20,0 11 6 NNE - 10 -
12.08.2019 11:00:00 32,0 18,9 13 7 N 1012,2 30 0,0
12.08.2019 10:00:00 - - - - - - - -
12.08.2019 09:00:00 28,0 20,0 5 3 SSW - 10 -
12.08.2019 08:00:00 24,7 19,6 5 3 SSW 1012,1 30 -
12.08.2019 07:00:00 22,0 19,0 4 2 S - 10 -
12.08.2019 06:00:00 22,0 18,0 4 2 - - 10 -
12.08.2019 05:00:00 20,8 18,3 2 1 N 1011,7 10 0,0
12.08.2019 04:00:00 23,0 19,0 5 3 S - 10 -
12.08.2019 03:00:00 23,0 19,0 4 2 - - 10 -

tt = temperature
td = dewpoint
ff = wind speed
dd = wind direction
ppp = reduced air pressure
vv = visibility
rr = precipitation

Next stations